Plymouth, MA

2:08 AM EDT on May 28, 2017 (GMT -0400)
Plymouth Municipal

Weather History for KPYM - December, 2012

Change the Weather History Date:

Wednesday, December 5, 2012

  Actual Average Record
Temperature  
Mean Temperature 47 °F -  
Max Temperature 57 °F 42 °F 64 °F (1982)
Min Temperature 37 °F 24 °F 8 °F (1976)
Degree Days  
Heating Degree Days 18    
Moisture  
Dew Point 41 °F    
Average Humidity 70    
Maximum Humidity 93    
Minimum Humidity 46    
Precipitation  
Precipitation 0.02 in - - ()
Sea Level Pressure  
Sea Level Pressure 29.94 in    
Wind  
Wind Speed 12 mph (West)    
Max Wind Speed 18 mph    
Max Gust Speed 25 mph    
Visibility 9 miles    
Events Rain    
Averages and records for this station are not official NWS values.
T = Trace of Precipitation, MM = Missing Value Source: NWS Daily Summary

Daily Weather History Graph

Daily Weather History Graph

Search for Another Location

Airport or City:

Trip Planner

Search our weather history database for the weather conditions in past years. The results will help you decide how hot, cold, wet, or windy it might be!

Date:

Astronomy

Dec. 05, 2012 Rise Set
Actual Time 6:55 AM EST 4:11 PM EST
Civil Twilight 6:24 AM EST 4:43 PM EST
Nautical Twilight 5:49 AM EST 5:17 PM EST
Astronomical Twilight 5:15 AM EST 5:51 PM EST
Moon 11:02 PM EST (12/5) 11:13 AM EST (12/5)
Length of Visible Light 10h 18m
Length of Day
9h 16m
Waning Gibbous, 60% of the Moon is Illuminated
Dec 5
Waning Gibbous
Dec 6
Last Quarter
Dec 13
New
Dec 20
First Quarter
Dec 28
Full

Hourly Weather History & Observations

Time (EST) Temp. Windchill Dew Point Humidity Pressure Visibility Wind Dir Wind Speed Gust Speed Precip Events Conditions
12:52 AM 57.0 °F - 53.1 °F 87% 30.00 in 10.0 mi SSW 11.5 mph 19.6 mph N/A   Overcast
1:52 AM 57.0 °F - 54.0 °F 89% 29.97 in 8.0 mi SSW 13.8 mph 21.9 mph N/A   Overcast
2:52 AM 57.0 °F - 54.0 °F 89% 29.94 in 8.0 mi SSW 9.2 mph 17.3 mph N/A   Overcast
3:23 AM 57.2 °F - 53.6 °F 88% 29.91 in 9.0 mi SSW 12.7 mph 19.6 mph N/A   Overcast
3:52 AM 57.0 °F - 54.0 °F 89% 29.89 in 8.0 mi SSW 10.4 mph - N/A   Overcast
4:52 AM 57.9 °F - 53.1 °F 84% 29.87 in 10.0 mi SSW 10.4 mph - N/A   Overcast
5:15 AM 57.2 °F - 53.6 °F 88% 29.85 in 10.0 mi SSW 12.7 mph 19.6 mph N/A   Overcast
5:52 AM 57.9 °F - 52.0 °F 81% 29.88 in 7.0 mi WSW 18.4 mph 24.2 mph 0.00 in Rain Light Rain
6:19 AM 55.4 °F - 51.8 °F 88% 29.88 in 9.0 mi WSW 11.5 mph - 0.01 in   Overcast
6:45 AM 55.4 °F - 51.8 °F 88% 29.88 in 10.0 mi WSW 10.4 mph - 0.01 in   Overcast
6:50 AM 55.4 °F - 51.8 °F 88% 29.88 in 9.0 mi WSW 8.1 mph - 0.01 in   Overcast
6:52 AM 55.0 °F - 52.0 °F 89% 29.88 in 9.0 mi WSW 9.2 mph - 0.01 in   Overcast
6:59 AM 55.4 °F - 51.8 °F 88% 29.88 in 7.0 mi WSW 6.9 mph - 0.00 in Rain Light Rain
7:12 AM 55.4 °F - 51.8 °F 88% 29.89 in 9.0 mi WSW 9.2 mph - 0.00 in Rain Light Rain
7:52 AM 54.0 °F - 52.0 °F 93% 29.90 in 5.0 mi SW 5.8 mph - 0.01 in Rain Light Rain
9:52 AM 53.1 °F - 45.0 °F 74% 29.93 in 10.0 mi West 8.1 mph - N/A   Overcast
10:52 AM 55.9 °F - 43.0 °F 62% 29.91 in 10.0 mi WNW 10.4 mph 19.6 mph N/A   Partly Cloudy
11:52 AM 53.1 °F - 39.0 °F 59% 29.90 in 10.0 mi WNW 10.4 mph - N/A   Clear
12:52 PM 54.0 °F - 35.1 °F 49% 29.88 in 10.0 mi WNW 13.8 mph 19.6 mph N/A   Clear
1:52 PM 53.1 °F - 34.0 °F 48% 29.89 in 10.0 mi WNW 12.7 mph 17.3 mph N/A   Clear
2:52 PM 52.0 °F - 33.1 °F 49% 29.90 in 10.0 mi WNW 12.7 mph 19.6 mph N/A   Clear
3:52 PM 50.0 °F - 32.0 °F 50% 29.93 in 10.0 mi NW 11.5 mph 19.6 mph N/A   Partly Cloudy
4:52 PM 48.0 °F - 28.0 °F 46% 29.95 in 10.0 mi West 13.8 mph 25.3 mph N/A   Clear
5:52 PM 44.1 °F 37.4 °F 27.0 °F 51% 29.99 in 10.0 mi WNW 13.8 mph 24.2 mph N/A   Clear
6:52 PM 41.0 °F 34.3 °F 24.1 °F 51% 30.02 in 10.0 mi WNW 11.5 mph 23.0 mph N/A   Clear
7:52 PM 41.0 °F 34.3 °F 21.9 °F 47% 30.03 in 10.0 mi WNW 11.5 mph 19.6 mph N/A   Mostly Cloudy
8:52 PM 41.0 °F 32.8 °F 21.9 °F 47% 30.05 in 10.0 mi NNW 16.1 mph 24.2 mph N/A   Overcast
9:52 PM 39.0 °F 31.4 °F 21.0 °F 49% 30.07 in 10.0 mi NW 12.7 mph 21.9 mph N/A   Overcast
10:52 PM 37.9 °F 29.6 °F 21.0 °F 51% 30.09 in 10.0 mi NW 13.8 mph - N/A   Overcast
11:52 PM 37.0 °F 28.1 °F 18.0 °F 46% 30.11 in 10.0 mi WNW 15.0 mph - N/A   Overcast